Hourly Data Report for May 16, 2020

All times are specified in Local Standard Time (LST). Add 1 hour to adjust for Daylight Saving Time where and when it is observed.

OTTAWA INTL A
ONTARIO
Current Station Operator: NAVCAN

45°19'00.000" N
75°40'00.000" W
114.90 m
6106001
71628
YOW

Download Data

Hourly Data (May 2020)
Hourly Data Report for May 16, 2020
TIME Temp Definition
°C
Dew Point Definition
°C
Rel Hum Definition
%
Wind Dir Definition
10's deg

Wind Spd Definition
km/h
Visibility Definition
km
Stn Press Definition
kPa
Hmdx Definition


Wind Chill Definition


Weather Definition


00:00 11.0 10.2 95 26 8 24.1 99.94     LegendNANA
01:00 11.1 9.7 91 31 18 24.1 100.01     Mostly Cloudy
02:00 10.8 8.5 86 32 21 24.1 100.08     LegendNANA
03:00 10.5 6.8 78 34 26 24.1 100.16     LegendNANA
04:00 10.6 6.7 77 32 21 24.1 100.29     Mostly Cloudy
05:00 10.3 6.8 78 32 17 24.1 100.39     LegendNANA
06:00 10.4 6.9 79 32 15 24.1 100.50     LegendNANA
07:00 11.3 7.0 75 33 17 24.1 100.56     Mostly Cloudy
08:00 11.1 6.3 72 33 24 24.1 100.70     LegendNANA
09:00 13.3 7.3 67 34 22 24.1 100.70     LegendNANA
10:00 13.7 6.6 62 35 13 24.1 100.73     Mostly Cloudy
11:00 14.9 6.3 56 33 14 24.1 100.76     LegendNANA
12:00 15.0 5.9 54 33 12 24.1 100.78     LegendNANA
13:00 15.2 6.2 54 34 7 24.1 100.82     Mostly Cloudy
14:00 16.5 5.3 47 32 18 24.1 100.77     LegendNANA
15:00 16.1 5.5 49 32 12 24.1 100.80     LegendNANA
16:00 16.2 5.7 49 33 7 24.1 100.81     Mostly Cloudy
17:00 16.3 5.6 49 26 9 24.1 100.82     LegendNANA
18:00 16.1 5.3 49 30 8 24.1 100.84     LegendNANA
19:00 14.3 6.5 59 25 7 24.1 100.91     Mostly Cloudy
20:00 13.4 5.6 59 24 7 24.1 100.94     LegendNANA
21:00 13.2 5.5 59 25 5 24.1 101.01     LegendNANA
22:00 12.2 6.4 67 20 9 24.1 101.01     Mostly Cloudy
23:00 9.8 5.7 75 19 5 24.1 101.01     LegendNANA

Notes on Data Quality.

Legend

  • E = Estimated
  • M = Missing
  • NA = Not Available*
  • [empty] = Indicates an unobserved value
Date modified: